Simultaneous Nadir Overpasses (SNOs) Predictions

Prediction of SNOs between AQUA and METOP-B Satellite Orbit:

Table of predicted SNOs for the next 14.0 days since TLE Epoch: 3/21/2020
Index Date (AQUA) Time (AQUA) Lat,Lon (AQUA) SZA (AQUA ) Date (METOP-B) Time (METOP-B) Lat,Lon (METOP-B) SZA (METOP-B ) Distance(km) Time Diff (sec)
1 03/21/2020 13:58:26 73.82, -35.31 73.30 03/21/2020 13:57:56 73.81, -35.22 73.30 2.98 30
2 03/21/2020 14:47:52 -73.84, 132.29 106.69 03/21/2020 14:48:37 -73.84, 132.18 106.69 3.40 45
3 03/24/2020 08:42:59 -73.07,-134.93 108.61 03/24/2020 08:41:54 -73.02,-137.94 108.52 97.73 65
4 03/24/2020 09:32:41 73.83, 31.11 72.20 03/24/2020 09:32:18 73.81, 31.20 72.19 2.92 23
5 03/24/2020 10:22:07 -73.84,-161.29 107.80 03/24/2020 10:22:59 -73.84,-161.40 107.80 3.51 52
6 03/27/2020 04:17:20 -73.34, -69.05 109.42 03/27/2020 04:16:11 -73.32, -70.87 109.36 57.96 69
7 03/27/2020 05:06:56 73.79, 97.64 71.04 03/27/2020 05:06:41 73.81, 97.61 71.08 3.38 15
8 03/27/2020 05:56:23 -73.86, -94.88 108.90 03/27/2020 05:57:22 -73.85, -94.99 108.91 3.59 59
9 03/29/2020 23:51:41 -73.62, -3.21 110.23 03/29/2020 23:50:29 -73.57, -3.90 110.24 22.41 72
10 03/30/2020 00:41:12 73.80, 164.03 69.96 03/30/2020 00:41:04 73.81, 164.01 69.97 1.36 8
11 03/30/2020 01:30:39 -73.88, -28.48 109.98 03/30/2020 01:31:44 -73.90, -28.46 109.97 2.36 65
12 04/01/2020 19:25:58 -73.75, 62.95 111.19 04/01/2020 19:24:47 -73.77, 62.97 111.16 1.97 71
13 04/01/2020 20:15:27 73.83,-129.58 68.89 04/01/2020 20:15:26 73.81,-129.59 68.87 1.75 1




NCC Satellite Simultaneous Nadir Overpasses (SNOs) Prediction Service
